EN

Hourly Weather Qala i Naw

Today, 24 July, Saturday

Time Temperature Precipitation Wind Pressure Humidity
00:00 +30°C° 0 mm 1 mps 674 mmHg 21%
01:00 +29°C° 0 mm 1 mps 674 mmHg 23%
02:00 +29°C° 0 mm 1 mps 674 mmHg 24%
03:00 +26°C° 0 mm 0 mps 674 mmHg 25%
04:00 +26°C° 0 mm 0 mps 674 mmHg 25%
05:00 +27°C° 0 mm 0 mps 675 mmHg 24%
06:00 +29°C° 0 mm 0 mps 676 mmHg 22%
07:00 +30°C° 0 mm 0 mps 677 mmHg 20%
08:00 +35°C° 0 mm 2 mps 677 mmHg 17%
09:00 +36°C° 0 mm 3 mps 677 mmHg 15%
10:00 +38°C° 0 mm 4 mps 677 mmHg 13%
11:00 +40°C° 0 mm 5 mps 677 mmHg 12%
12:00 +41°C° 0 mm 5 mps 677 mmHg 11%
13:00 +42°C° 0 mm 6 mps 677 mmHg 9%
14:00 +43°C° 0 mm 7 mps 677 mmHg 9%
15:00 +43°C° 0 mm 8 mps 676 mmHg 8%
16:00 +43°C° 0 mm 9 mps 676 mmHg 8%
17:00 +41°C° 0 mm 8 mps 676 mmHg 8%
18:00 +39°C° 0 mm 8 mps 677 mmHg 7%
19:00 +38°C° 0 mm 7 mps 677 mmHg 7%
20:00 +35°C° 0 mm 5 mps 677 mmHg 8%
21:00 +34°C° 0 mm 4 mps 677 mmHg 9%
22:00 +31°C° 0 mm 2 mps 677 mmHg 10%
23:00 +31°C° 0 mm 2 mps 677 mmHg 11%

Tomorrow, 25 July, Sunday

Time Temperature Precipitation Wind Pressure Humidity
00:00 +30°C° 0 mm 2 mps 677 mmHg 11%
01:00 +29°C° 0 mm 2 mps 677 mmHg 12%
02:00 +28°C° 0 mm 1 mps 677 mmHg 13%
03:00 +28°C° 0 mm 1 mps 677 mmHg 13%
04:00 +27°C° 0 mm 1 mps 677 mmHg 14%
05:00 +28°C° 0 mm 1 mps 677 mmHg 13%
06:00 +30°C° 0 mm 1 mps 678 mmHg 12%
07:00 +29°C° 0 mm 0 mps 678 mmHg 11%
08:00 +33°C° 0 mm 1 mps 679 mmHg 10%
09:00 +35°C° 0 mm 2 mps 679 mmHg 10%
10:00 +37°C° 0 mm 3 mps 679 mmHg 9%
11:00 +38°C° 0 mm 4 mps 679 mmHg 9%
12:00 +40°C° 0 mm 5 mps 678 mmHg 9%
13:00 +41°C° 0 mm 6 mps 678 mmHg 9%
14:00 +42°C° 0 mm 6 mps 678 mmHg 9%
15:00 +43°C° 0 mm 7 mps 678 mmHg 9%
16:00 +44°C° 0 mm 7 mps 677 mmHg 9%
17:00 +43°C° 0 mm 7 mps 677 mmHg 9%
18:00 +41°C° 0 mm 7 mps 677 mmHg 10%
19:00 +40°C° 0 mm 7 mps 677 mmHg 10%
20:00 +38°C° 0 mm 7 mps 677 mmHg 11%
21:00 +36°C° 0 mm 6 mps 677 mmHg 11%
22:00 +35°C° 0 mm 5 mps 677 mmHg 11%
23:00 +34°C° 0 mm 4 mps 677 mmHg 12%

Day after tomorrow, 26 July, Monday

Time Temperature Precipitation Wind Pressure Humidity
00:00 +33°C° 0 mm 3 mps 677 mmHg 14%
01:00 +30°C° 0 mm 2 mps 677 mmHg 15%
02:00 +30°C° 0 mm 2 mps 677 mmHg 16%
03:00 +29°C° 0 mm 2 mps 677 mmHg 17%
04:00 +28°C° 0 mm 1 mps 677 mmHg 18%
05:00 +29°C° 0 mm 2 mps 678 mmHg 17%
06:00 +30°C° 0 mm 2 mps 679 mmHg 16%
07:00 +33°C° 0 mm 3 mps 679 mmHg 16%
08:00 +34°C° 0 mm 4 mps 679 mmHg 15%
09:00 +36°C° 0 mm 6 mps 680 mmHg 14%
10:00 +39°C° 0 mm 8 mps 680 mmHg 14%
11:00 +40°C° 0 mm 9 mps 679 mmHg 13%
12:00 +42°C° 0 mm 10 mps 679 mmHg 12%
13:00 +43°C° 0 mm 11 mps 679 mmHg 11%
14:00 +43°C° 0 mm 11 mps 678 mmHg 11%
15:00 +44°C° 0 mm 12 mps 678 mmHg 11%
16:00 +44°C° 0 mm 12 mps 678 mmHg 11%
17:00 +43°C° 0 mm 12 mps 678 mmHg 12%
18:00 +41°C° 0 mm 11 mps 678 mmHg 14%
19:00 +39°C° 0 mm 10 mps 678 mmHg 15%
20:00 +38°C° 0 mm 9 mps 678 mmHg 17%
21:00 +37°C° 0 mm 8 mps 678 mmHg 18%
22:00 +35°C° 0 mm 7 mps 678 mmHg 20%
23:00 +34°C° 0 mm 6 mps 678 mmHg 22%

27 July, Tuesday

Time Temperature Precipitation Wind Pressure Humidity
00:00 +33°C° 0 mm 6 mps 678 mmHg 23%
01:00 +32°C° 0 mm 5 mps 677 mmHg 25%
02:00 +30°C° 0 mm 4 mps 677 mmHg 27%
03:00 +29°C° 0 mm 3 mps 677 mmHg 29%
04:00 +28°C° 0 mm 2 mps 677 mmHg 30%
05:00 +29°C° 0 mm 3 mps 677 mmHg 29%
06:00 +30°C° 0 mm 3 mps 677 mmHg 28%
07:00 +30°C° 0 mm 4 mps 678 mmHg 26%
08:00 +33°C° 0 mm 6 mps 678 mmHg 24%
09:00 +34°C° 0 mm 8 mps 678 mmHg 21%
10:00 +37°C° 0 mm 9 mps 678 mmHg 19%
11:00 +38°C° 0 mm 10 mps 678 mmHg 16%
12:00 +38°C° 0 mm 10 mps 677 mmHg 14%
13:00 +39°C° 0 mm 11 mps 677 mmHg 12%
14:00 +39°C° 0 mm 11 mps 677 mmHg 11%
15:00 +39°C° 0 mm 12 mps 676 mmHg 11%
16:00 +39°C° 0 mm 12 mps 676 mmHg 10%
17:00 +38°C° 0 mm 11 mps 676 mmHg 10%
18:00 +36°C° 0 mm 10 mps 676 mmHg 10%
19:00 +34°C° 0 mm 10 mps 676 mmHg 10%
20:00 +33°C° 0 mm 8 mps 676 mmHg 11%
21:00 +32°C° 0 mm 7 mps 676 mmHg 12%
22:00 +29°C° 0 mm 6 mps 676 mmHg 13%
23:00 +28°C° 0 mm 4 mps 676 mmHg 14%

28 July, Wednesday

Time Temperature Precipitation Wind Pressure Humidity
00:00 +27°C° 0 mm 3 mps 676 mmHg 15%
01:00 +26°C° 0 mm 2 mps 675 mmHg 16%
02:00 +25°C° 0 mm 2 mps 675 mmHg 17%
03:00 +24°C° 0 mm 1 mps 675 mmHg 18%
04:00 +24°C° 0 mm 1 mps 675 mmHg 19%
05:00 +25°C° 0 mm 1 mps 675 mmHg 18%
06:00 +26°C° 0 mm 1 mps 676 mmHg 16%
07:00 +26°C° 0 mm 1 mps 676 mmHg 15%
08:00 +28°C° 0 mm 2 mps 676 mmHg 15%
09:00 +30°C° 0 mm 4 mps 677 mmHg 14%
10:00 +32°C° 0 mm 5 mps 677 mmHg 13%
11:00 +34°C° 0 mm 6 mps 677 mmHg 12%
12:00 +35°C° 0 mm 8 mps 676 mmHg 10%
13:00 +38°C° 0 mm 9 mps 676 mmHg 9%
14:00 +38°C° 0 mm 10 mps 676 mmHg 9%
15:00 +38°C° 0 mm 10 mps 676 mmHg 8%
16:00 +38°C° 0 mm 11 mps 675 mmHg 8%
17:00 +37°C° 0 mm 10 mps 675 mmHg 8%
18:00 +34°C° 0 mm 10 mps 676 mmHg 9%
19:00 +33°C° 0 mm 9 mps 676 mmHg 10%
20:00 +32°C° 0 mm 7 mps 676 mmHg 11%
21:00 +29°C° 0 mm 6 mps 676 mmHg 12%
22:00 +28°C° 0 mm 4 mps 676 mmHg 13%
23:00 +27°C° 0 mm 3 mps 676 mmHg 14%

29 July, Thursday

Time Temperature Precipitation Wind Pressure Humidity
00:00 +26°C° 0 mm 3 mps 676 mmHg 15%
01:00 +25°C° 0 mm 2 mps 675 mmHg 16%
02:00 +24°C° 0 mm 2 mps 675 mmHg 16%
03:00 +24°C° 0 mm 1 mps 675 mmHg 17%
04:00 +23°C° 0 mm 1 mps 675 mmHg 18%
05:00 +24°C° 0 mm 1 mps 676 mmHg 17%
06:00 +25°C° 0 mm 1 mps 676 mmHg 15%
07:00 +26°C° 0 mm 1 mps 677 mmHg 14%
08:00 +28°C° 0 mm 2 mps 677 mmHg 13%
09:00 +29°C° 0 mm 3 mps 677 mmHg 12%
10:00 +32°C° 0 mm 4 mps 678 mmHg 11%
11:00 +33°C° 0 mm 6 mps 677 mmHg 11%
12:00 +35°C° 0 mm 7 mps 677 mmHg 12%
13:00 +37°C° 0 mm 9 mps 677 mmHg 12%
14:00 +37°C° 0 mm 10 mps 677 mmHg 13%
15:00 +37°C° 0 mm 11 mps 676 mmHg 14%
16:00 +37°C° 0 mm 11 mps 676 mmHg 16%
17:00 +36°C° 0 mm 11 mps 676 mmHg 17%
18:00 +34°C° 0 mm 11 mps 677 mmHg 19%
19:00 +32°C° 0 mm 10 mps 677 mmHg 21%
20:00 +31°C° 0 mm 9 mps 677 mmHg 21%
21:00 +29°C° 0 mm 8 mps 678 mmHg 21%
22:00 +28°C° 0 mm 7 mps 678 mmHg 22%
23:00 +27°C° 0 mm 6 mps 678 mmHg 24%
Show more

We Need Your Consent

Meteoprog and our Service Providers may store and access personal data such as cookies, device identifiers or other similar technologies on your device and process such data to personalise content and ads, as well as provide social media features and to analyse the traffic.

  • Store and/or access information on your device

    Cookies, device identifiers or other information can be stored or accessed on your device for the purposes indicated above.

  • Personalised ads and content, ad and content measurement, audience insights, and products development

    Ads and content can be personalised based on a profile. More data can be added to better personalise ads and content. Ad and content performance can be measured. Insights about the audience who saw the ads and content can be derived. Such data can be used to develop or improve user’s experience, systems and software.

By clicking ‘I Agree’ you will allow the use of indicated cookies, device identifiers, web beacons or other similar technologies. Your settings can be changed in the browser on your device.

For certain purposes, legitimate interests may be relied on, rather than consent. You can read more about this in our Privacy and Cookie Policy.